Hourly Weather Bolshie Tulyany

Today, 17 June, Thursday

Time Temperature Precipitation Wind Pressure Humidity
00:00 +18°C° 0 mm 3 mps 747 mmHg 92%
01:00 +18°C° 0 mm 3 mps 748 mmHg 93%
02:00 +17°C° 0 mm 3 mps 748 mmHg 94%
03:00 +17°C° 0 mm 3 mps 749 mmHg 95%
04:00 +17°C° 0 mm 3 mps 749 mmHg 93%
05:00 +17°C° 0 mm 3 mps 749 mmHg 91%
06:00 +17°C° 0 mm 3 mps 750 mmHg 90%
07:00 +19°C° 0 mm 4 mps 750 mmHg 84%
08:00 +20°C° 0 mm 4 mps 750 mmHg 78%
09:00 +22°C° 0 mm 5 mps 751 mmHg 72%
10:00 +23°C° 0 mm 5 mps 751 mmHg 68%
11:00 +23°C° 0 mm 5 mps 752 mmHg 64%
12:00 +25°C° 0 mm 5 mps 752 mmHg 60%
13:00 +25°C° 0 mm 5 mps 752 mmHg 58%
14:00 +25°C° 0 mm 5 mps 752 mmHg 56%
15:00 +25°C° 0 mm 5 mps 752 mmHg 54%
16:00 +23°C° 0 mm 5 mps 752 mmHg 58%
17:00 +23°C° 0 mm 4 mps 753 mmHg 62%
18:00 +22°C° 0 mm 4 mps 753 mmHg 66%
19:00 +20°C° 0 mm 4 mps 753 mmHg 71%
20:00 +19°C° 0 mm 3 mps 753 mmHg 76%
21:00 +17°C° 0 mm 3 mps 754 mmHg 81%
22:00 +16°C° 0 mm 3 mps 754 mmHg 82%
23:00 +16°C° 0 mm 3 mps 754 mmHg 83%

Tomorrow, 18 June, Friday

Time Temperature Precipitation Wind Pressure Humidity
00:00 +14°C° 0 mm 3 mps 754 mmHg 84%
01:00 +14°C° 0 mm 3 mps 754 mmHg 85%
02:00 +13°C° 0 mm 3 mps 754 mmHg 85%
03:00 +13°C° 0 mm 3 mps 755 mmHg 85%
04:00 +14°C° 0 mm 3 mps 755 mmHg 83%
05:00 +14°C° 0 mm 3 mps 755 mmHg 81%
06:00 +14°C° 0 mm 3 mps 756 mmHg 79%
07:00 +17°C° 0 mm 4 mps 756 mmHg 72%
08:00 +19°C° 0 mm 4 mps 756 mmHg 66%
09:00 +20°C° 0 mm 5 mps 756 mmHg 59%
10:00 +21°C° 0 mm 5 mps 756 mmHg 57%
11:00 +22°C° 0 mm 5 mps 756 mmHg 54%
12:00 +22°C° 0 mm 6 mps 756 mmHg 51%
13:00 +23°C° 0 mm 5 mps 756 mmHg 52%
14:00 +23°C° 0 mm 5 mps 756 mmHg 52%
15:00 +23°C° 0 mm 5 mps 756 mmHg 52%
16:00 +22°C° 0 mm 5 mps 756 mmHg 57%
17:00 +22°C° 0 mm 4 mps 756 mmHg 61%
18:00 +22°C° 0 mm 4 mps 756 mmHg 66%
19:00 +20°C° 0 mm 3 mps 756 mmHg 72%
20:00 +18°C° 0 mm 3 mps 756 mmHg 78%
21:00 +16°C° 0 mm 3 mps 756 mmHg 84%
22:00 +16°C° 0 mm 3 mps 757 mmHg 85%
23:00 +14°C° 0 mm 3 mps 757 mmHg 86%

Day after tomorrow, 19 June, Saturday

Time Temperature Precipitation Wind Pressure Humidity
00:00 +14°C° 0 mm 2 mps 757 mmHg 87%
01:00 +14°C° 0 mm 2 mps 757 mmHg 88%
02:00 +13°C° 0 mm 2 mps 757 mmHg 89%
03:00 +13°C° 0 mm 2 mps 757 mmHg 90%
04:00 +14°C° 0 mm 2 mps 758 mmHg 87%
05:00 +15°C° 0 mm 2 mps 758 mmHg 84%
06:00 +15°C° 0 mm 2 mps 758 mmHg 81%
07:00 +17°C° 0 mm 2 mps 758 mmHg 74%
08:00 +19°C° 0 mm 2 mps 758 mmHg 67%
09:00 +20°C° 0 mm 2 mps 758 mmHg 61%
10:00 +21°C° 0 mm 3 mps 758 mmHg 58%
11:00 +22°C° 0 mm 3 mps 758 mmHg 55%
12:00 +24°C° 0 mm 3 mps 757 mmHg 52%
13:00 +25°C° 0 mm 3 mps 757 mmHg 51%
14:00 +25°C° 0 mm 3 mps 757 mmHg 51%
15:00 +25°C° 0 mm 2 mps 756 mmHg 50%
16:00 +25°C° 0 mm 2 mps 756 mmHg 54%
17:00 +25°C° 0 mm 2 mps 756 mmHg 58%
18:00 +25°C° 0 mm 2 mps 756 mmHg 63%
19:00 +23°C° 0 mm 1 mps 756 mmHg 68%
20:00 +21°C° 0 mm 1 mps 756 mmHg 73%
21:00 +19°C° 0 mm 1 mps 756 mmHg 78%
22:00 +18°C° 0 mm 1 mps 756 mmHg 79%
23:00 +18°C° 0 mm 1 mps 756 mmHg 81%

20 June, Sunday

Time Temperature Precipitation Wind Pressure Humidity
00:00 +16°C° 0 mm 1 mps 756 mmHg 82%
01:00 +16°C° 0 mm 1 mps 756 mmHg 83%
02:00 +15°C° 0 mm 1 mps 756 mmHg 84%
03:00 +15°C° 0 mm 1 mps 756 mmHg 85%
04:00 +16°C° 0 mm 1 mps 756 mmHg 83%
05:00 +18°C° 0 mm 1 mps 756 mmHg 81%
06:00 +18°C° 0 mm 1 mps 756 mmHg 79%
07:00 +20°C° 0 mm 1 mps 756 mmHg 74%
08:00 +21°C° 0 mm 2 mps 756 mmHg 68%
09:00 +24°C° 0 mm 2 mps 756 mmHg 63%
10:00 +25°C° 0 mm 2 mps 756 mmHg 60%
11:00 +26°C° 0 mm 2 mps 756 mmHg 56%
12:00 +27°C° 0 mm 2 mps 755 mmHg 53%
13:00 +27°C° 0 mm 2 mps 755 mmHg 52%
14:00 +28°C° 0 mm 2 mps 755 mmHg 51%
15:00 +28°C° 0 mm 2 mps 755 mmHg 50%
16:00 +28°C° 0 mm 2 mps 754 mmHg 55%
17:00 +28°C° 0 mm 2 mps 754 mmHg 60%
18:00 +27°C° 0 mm 2 mps 754 mmHg 64%
19:00 +25°C° 0 mm 2 mps 754 mmHg 69%
20:00 +24°C° 0 mm 2 mps 754 mmHg 73%
21:00 +21°C° 0 mm 2 mps 754 mmHg 78%
22:00 +20°C° 0 mm 2 mps 754 mmHg 79%
23:00 +20°C° 0 mm 2 mps 754 mmHg 81%

21 June, Monday

Time Temperature Precipitation Wind Pressure Humidity
00:00 +19°C° 0 mm 2 mps 754 mmHg 83%
01:00 +19°C° 0 mm 2 mps 754 mmHg 84%
02:00 +18°C° 0 mm 2 mps 754 mmHg 86%
03:00 +18°C° 0 mm 2 mps 753 mmHg 88%
04:00 +19°C° 0 mm 2 mps 754 mmHg 86%
05:00 +19°C° 0 mm 2 mps 754 mmHg 85%
06:00 +20°C° 0 mm 2 mps 754 mmHg 83%
07:00 +23°C° 0 mm 2 mps 754 mmHg 77%
08:00 +25°C° 0 mm 2 mps 754 mmHg 71%
09:00 +26°C° 0 mm 2 mps 754 mmHg 65%
10:00 +27°C° 0 mm 2 mps 754 mmHg 60%
11:00 +28°C° 0 mm 2 mps 754 mmHg 56%
12:00 +29°C° 0 mm 2 mps 754 mmHg 52%
13:00 +30°C° 0 mm 2 mps 753 mmHg 50%
14:00 +30°C° 0 mm 1 mps 753 mmHg 49%
15:00 +31°C° 0 mm 1 mps 753 mmHg 47%
16:00 +30°C° 0 mm 1 mps 753 mmHg 52%
17:00 +30°C° 0 mm 1 mps 753 mmHg 56%
18:00 +30°C° 0 mm 1 mps 753 mmHg 60%
19:00 +28°C° 0 mm 1 mps 753 mmHg 64%
20:00 +26°C° 0 mm 1 mps 752 mmHg 68%
21:00 +24°C° 0 mm 1 mps 752 mmHg 72%
22:00 +23°C° 0 mm 1 mps 752 mmHg 74%
23:00 +22°C° 0 mm 1 mps 753 mmHg 75%

22 June, Tuesday

Time Temperature Precipitation Wind Pressure Humidity
00:00 +22°C° 0 mm 1 mps 753 mmHg 77%
01:00 +21°C° 0 mm 1 mps 753 mmHg 78%
02:00 +20°C° 0 mm 2 mps 753 mmHg 80%
03:00 +20°C° 0 mm 2 mps 753 mmHg 82%
04:00 +20°C° 0 mm 2 mps 753 mmHg 81%
05:00 +22°C° 0 mm 1 mps 753 mmHg 81%
06:00 +23°C° 0 mm 1 mps 753 mmHg 80%
07:00 +25°C° 0 mm 1 mps 753 mmHg 75%
08:00 +26°C° 0 mm 2 mps 753 mmHg 70%
09:00 +28°C° 0 mm 2 mps 753 mmHg 64%
10:00 +29°C° 0 mm 2 mps 753 mmHg 60%
11:00 +30°C° 0 mm 2 mps 753 mmHg 56%
12:00 +31°C° 0 mm 2 mps 753 mmHg 52%
13:00 +31°C° 0 mm 2 mps 753 mmHg 51%
14:00 +31°C° 0 mm 2 mps 753 mmHg 50%
15:00 +32°C° 0 mm 2 mps 753 mmHg 49%
16:00 +31°C° 0 mm 2 mps 753 mmHg 53%
17:00 +31°C° 0 mm 2 mps 752 mmHg 58%
18:00 +30°C° 0 mm 2 mps 752 mmHg 62%
19:00 +29°C° 0 mm 2 mps 752 mmHg 66%
20:00 +27°C° 0 mm 2 mps 752 mmHg 70%
21:00 +25°C° 0 mm 1 mps 753 mmHg 75%
22:00 +24°C° 0 mm 1 mps 753 mmHg 77%
23:00 +24°C° 0 mm 1 mps 753 mmHg 79%
Show more